owner,sensor,date,latitude,longitude,vertical_datum,mass_concentration_of_oxygen_in_sea_water,qcFlag 
DISL,ioos:station:DISL:DISL:1,2015-12-01T00:00:00Z,30.2513,-88.0778,2.152,9.07,1111122 
DISL,ioos:station:DISL:DISL:1,2015-12-01T00:30:00Z,30.2513,-88.0778,2.196,9.15,1111122 
DISL,ioos:station:DISL:DISL:1,2015-12-01T01:00:00Z,30.2513,-88.0778,2.157,8.85,1111122 
DISL,ioos:station:DISL:DISL:1,2015-12-01T01:30:00Z,30.2513,-88.0778,2.16,8.76,1111122 
DISL,ioos:station:DISL:DISL:1,2015-12-01T02:00:00Z,30.2513,-88.0778,2.26,8.19,1111122 
DISL,ioos:station:DISL:DISL:1,2015-12-01T02:30:00Z,30.2513,-88.0778,2.295,7.99,1111122 
DISL,ioos:station:DISL:DISL:1,2015-12-01T03:00:00Z,30.2513,-88.0778,2.314,7.81,1111122 
DISL,ioos:station:DISL:DISL:1,2015-12-01T03:30:00Z,30.2513,-88.0778,2.332,7.64,1111122 
DISL,ioos:station:DISL:DISL:1,2015-12-01T04:00:00Z,30.2513,-88.0778,2.347,7.6,1111122 
DISL,ioos:station:DISL:DISL:1,2015-12-01T04:30:00Z,30.2513,-88.0778,2.357,7.65,1111122 
DISL,ioos:station:DISL:DISL:1,2015-12-01T05:00:00Z,30.2513,-88.0778,2.384,8.54,1111122 
DISL,ioos:station:DISL:DISL:1,2015-12-01T05:30:00Z,30.2513,-88.0778,2.381,9.15,1111122 
DISL,ioos:station:DISL:DISL:1,2015-12-01T06:00:00Z,30.2513,-88.0778,2.398,9.34,1111122 
DISL,ioos:station:DISL:DISL:1,2015-12-01T06:30:00Z,30.2513,-88.0778,2.378,9.5,1111122 
DISL,ioos:station:DISL:DISL:1,2015-12-01T07:00:00Z,30.2513,-88.0778,2.381,9.42,1111122 
DISL,ioos:station:DISL:DISL:1,2015-12-01T07:30:00Z,30.2513,-88.0778,2.373,9.41,1111122 
DISL,ioos:station:DISL:DISL:1,2015-12-01T08:00:00Z,30.2513,-88.0778,2.359,9.39,1111122 
DISL,ioos:station:DISL:DISL:1,2015-12-01T08:30:00Z,30.2513,-88.0778,2.349,9.14,1111122 
DISL,ioos:station:DISL:DISL:1,2015-12-01T09:00:00Z,30.2513,-88.0778,2.312,8.98,1111122 
DISL,ioos:station:DISL:DISL:1,2015-12-01T09:30:00Z,30.2513,-88.0778,2.287,8.98,1111122 
DISL,ioos:station:DISL:DISL:1,2015-12-01T10:00:00Z,30.2513,-88.0778,2.273,8.88,1111122 
DISL,ioos:station:DISL:DISL:1,2015-12-01T10:30:00Z,30.2513,-88.0778,2.247,8.82,1111122 
DISL,ioos:station:DISL:DISL:1,2015-12-01T11:00:00Z,30.2513,-88.0778,2.204,8.86,1111122 
DISL,ioos:station:DISL:DISL:1,2015-12-01T11:30:00Z,30.2513,-88.0778,2.19,9.17,1111122 
DISL,ioos:station:DISL:DISL:1,2015-12-01T12:00:00Z,30.2513,-88.0778,2.188,10.86,1111122 
DISL,ioos:station:DISL:DISL:1,2015-12-01T12:30:00Z,30.2513,-88.0778,2.159,10.88,1111122 
DISL,ioos:station:DISL:DISL:1,2015-12-01T13:00:00Z,30.2513,-88.0778,2.128,10.91,1111122 
DISL,ioos:station:DISL:DISL:1,2015-12-01T13:30:00Z,30.2513,-88.0778,2.089,11.09,1111122 
DISL,ioos:station:DISL:DISL:1,2015-12-01T14:00:00Z,30.2513,-88.0778,2.078,11.25,1111122 
DISL,ioos:station:DISL:DISL:1,2015-12-01T14:30:00Z,30.2513,-88.0778,2.065,11.43,1111122 
DISL,ioos:station:DISL:DISL:1,2015-12-01T15:00:00Z,30.2513,-88.0778,2.044,11.58,1111122 
DISL,ioos:station:DISL:DISL:1,2015-12-01T15:30:00Z,30.2513,-88.0778,2.033,11.72,1111122 
DISL,ioos:station:DISL:DISL:1,2015-12-01T16:00:00Z,30.2513,-88.0778,2.021,11.85,1111122 
DISL,ioos:station:DISL:DISL:1,2015-12-01T16:30:00Z,30.2513,-88.0778,2.01,11.83,1111122 
DISL,ioos:station:DISL:DISL:1,2015-12-01T17:00:00Z,30.2513,-88.0778,2.014,11.57,1111122 
DISL,ioos:station:DISL:DISL:1,2015-12-01T17:30:00Z,30.2513,-88.0778,2.003,10.85,1111122 
DISL,ioos:station:DISL:DISL:1,2015-12-01T18:00:00Z,30.2513,-88.0778,2.005,9.59,1111122 
DISL,ioos:station:DISL:DISL:1,2015-12-01T18:30:00Z,30.2513,-88.0778,2.012,9.53,1111122 
DISL,ioos:station:DISL:DISL:1,2015-12-01T19:00:00Z,30.2513,-88.0778,2.028,9.44,1111122 
DISL,ioos:station:DISL:DISL:1,2015-12-01T19:30:00Z,30.2513,-88.0778,2.019,9.07,1111122 
DISL,ioos:station:DISL:DISL:1,2015-12-01T20:00:00Z,30.2513,-88.0778,2.024,9.05,1111122 
DISL,ioos:station:DISL:DISL:1,2015-12-01T20:30:00Z,30.2513,-88.0778,2.037,8.94,1111122 
DISL,ioos:station:DISL:DISL:1,2015-12-01T21:00:00Z,30.2513,-88.0778,2.048,9.15,1111122 
DISL,ioos:station:DISL:DISL:1,2015-12-01T21:30:00Z,30.2513,-88.0778,2.059,9.47,1111122 
DISL,ioos:station:DISL:DISL:1,2015-12-01T22:00:00Z,30.2513,-88.0778,2.102,9.46,1111122 
DISL,ioos:station:DISL:DISL:1,2015-12-01T22:30:00Z,30.2513,-88.0778,2.116,9.36,1111122 
DISL,ioos:station:DISL:DISL:1,2015-12-01T23:00:00Z,30.2513,-88.0778,2.134,9.01,1111122 
DISL,ioos:station:DISL:DISL:1,2015-12-01T23:30:00Z,30.2513,-88.0778,2.158,8.93,1111122 
DISL,ioos:station:DISL:DISL:1,2015-12-02T00:00:00Z,30.2513,-88.0778,2.189,8.7,1111122 
DISL,ioos:station:DISL:DISL:1,2015-12-02T00:30:00Z,30.2513,-88.0778,2.194,8.65,1111122 
DISL,ioos:station:DISL:DISL:1,2015-12-02T01:00:00Z,30.2513,-88.0778,2.219,8.26,1111122 
DISL,ioos:station:DISL:DISL:1,2015-12-02T01:30:00Z,30.2513,-88.0778,2.254,8.27,1111122 
DISL,ioos:station:DISL:DISL:1,2015-12-02T02:00:00Z,30.2513,-88.0778,2.259,8.33,1111122 
DISL,ioos:station:DISL:DISL:1,2015-12-02T02:30:00Z,30.2513,-88.0778,2.283,8.39,1111122 
DISL,ioos:station:DISL:DISL:1,2015-12-02T03:00:00Z,30.2513,-88.0778,2.303,8.56,1111122 
DISL,ioos:station:DISL:DISL:1,2015-12-02T03:30:00Z,30.2513,-88.0778,2.316,8.2,1111122 
DISL,ioos:station:DISL:DISL:1,2015-12-02T04:00:00Z,30.2513,-88.0778,2.318,8.17,1111122 
DISL,ioos:station:DISL:DISL:1,2015-12-02T04:30:00Z,30.2513,-88.0778,2.356,8.65,1111122 
DISL,ioos:station:DISL:DISL:1,2015-12-02T05:00:00Z,30.2513,-88.0778,2.37,8.64,1111122 
DISL,ioos:station:DISL:DISL:1,2015-12-02T05:30:00Z,30.2513,-88.0778,2.38,8.48,1111122 
DISL,ioos:station:DISL:DISL:1,2015-12-02T06:00:00Z,30.2513,-88.0778,2.373,8.66,1111122 
DISL,ioos:station:DISL:DISL:1,2015-12-02T06:30:00Z,30.2513,-88.0778,2.377,8.82,1111122 
DISL,ioos:station:DISL:DISL:1,2015-12-02T07:00:00Z,30.2513,-88.0778,2.361,8.88,1111122 
DISL,ioos:station:DISL:DISL:1,2015-12-02T07:30:00Z,30.2513,-88.0778,2.363,8.71,1111122 
DISL,ioos:station:DISL:DISL:1,2015-12-02T08:00:00Z,30.2513,-88.0778,2.355,8.76,1111122 
DISL,ioos:station:DISL:DISL:1,2015-12-02T08:30:00Z,30.2513,-88.0778,2.333,8.76,1111122 
DISL,ioos:station:DISL:DISL:1,2015-12-02T09:00:00Z,30.2513,-88.0778,2.325,8.64,1111122 
DISL,ioos:station:DISL:DISL:1,2015-12-02T09:30:00Z,30.2513,-88.0778,2.297,8.61,1111122 
DISL,ioos:station:DISL:DISL:1,2015-12-02T10:00:00Z,30.2513,-88.0778,2.286,8.52,1111122 
DISL,ioos:station:DISL:DISL:1,2015-12-02T10:30:00Z,30.2513,-88.0778,2.269,8.36,1111122 
DISL,ioos:station:DISL:DISL:1,2015-12-02T11:00:00Z,30.2513,-88.0778,2.24,8.42,1111122 
DISL,ioos:station:DISL:DISL:1,2015-12-02T11:30:00Z,30.2513,-88.0778,2.231,8.32,1111122 
DISL,ioos:station:DISL:DISL:1,2015-12-02T12:00:00Z,30.2513,-88.0778,2.212,8.4,1111122 
DISL,ioos:station:DISL:DISL:1,2015-12-02T12:30:00Z,30.2513,-88.0778,2.186,8.42,1111122 
DISL,ioos:station:DISL:DISL:1,2015-12-02T13:00:00Z,30.2513,-88.0778,2.187,8.6,1111122 
DISL,ioos:station:DISL:DISL:1,2015-12-02T13:30:00Z,30.2513,-88.0778,2.159,9.63,1111122 
DISL,ioos:station:DISL:DISL:1,2015-12-02T14:00:00Z,30.2513,-88.0778,2.14,10.53,1111122 
DISL,ioos:station:DISL:DISL:1,2015-12-02T14:30:00Z,30.2513,-88.0778,2.139,10.71,1111122 
DISL,ioos:station:DISL:DISL:1,2015-12-02T15:00:00Z,30.2513,-88.0778,2.164,10.49,1111122 
DISL,ioos:station:DISL:DISL:1,2015-12-02T15:30:00Z,30.2513,-88.0778,2.133,10.44,1111122 
DISL,ioos:station:DISL:DISL:1,2015-12-02T16:00:00Z,30.2513,-88.0778,1.986,10.42,1111122 
DISL,ioos:station:DISL:DISL:1,2015-12-02T16:30:00Z,30.2513,-88.0778,2.031,10.55,1111122 
DISL,ioos:station:DISL:DISL:1,2015-12-02T17:00:00Z,30.2513,-88.0778,2.009,10.45,1111122 
DISL,ioos:station:DISL:DISL:1,2015-12-02T17:30:00Z,30.2513,-88.0778,2.014,10.44,1111122 
DISL,ioos:station:DISL:DISL:1,2015-12-02T18:00:00Z,30.2513,-88.0778,2.038,10.44,1111122 
DISL,ioos:station:DISL:DISL:1,2015-12-02T18:30:00Z,30.2513,-88.0778,2.035,10.43,1111122 
DISL,ioos:station:DISL:DISL:1,2015-12-02T19:00:00Z,30.2513,-88.0778,2.031,9.32,1111122 
DISL,ioos:station:DISL:DISL:1,2015-12-02T19:30:00Z,30.2513,-88.0778,2.021,8.77,1111122 
DISL,ioos:station:DISL:DISL:1,2015-12-02T20:00:00Z,30.2513,-88.0778,2.042,8.86,1111122 
DISL,ioos:station:DISL:DISL:1,2015-12-02T20:30:00Z,30.2513,-88.0778,2.037,9.06,1111122 
DISL,ioos:station:DISL:DISL:1,2015-12-02T21:00:00Z,30.2513,-88.0778,2.073,9.56,1111122 
DISL,ioos:station:DISL:DISL:1,2015-12-02T21:30:00Z,30.2513,-88.0778,2.048,9.67,1111122 
DISL,ioos:station:DISL:DISL:1,2015-12-02T22:00:00Z,30.2513,-88.0778,2.112,9.78,1111122 
DISL,ioos:station:DISL:DISL:1,2015-12-02T22:30:00Z,30.2513,-88.0778,2.116,9.22,1111122 
DISL,ioos:station:DISL:DISL:1,2015-12-02T23:00:00Z,30.2513,-88.0778,2.11,8.92,1111122 
DISL,ioos:station:DISL:DISL:1,2015-12-02T23:30:00Z,30.2513,-88.0778,2.116,8.99,1111122 
DISL,ioos:station:DISL:DISL:1,2015-12-03T00:00:00Z,30.2513,-88.0778,2.157,8.69,1111122 
DISL,ioos:station:DISL:DISL:1,2015-12-03T00:30:00Z,30.2513,-88.0778,2.156,8.75,1111122 
DISL,ioos:station:DISL:DISL:1,2015-12-03T01:00:00Z,30.2513,-88.0778,2.145,8.93,1111122 
DISL,ioos:station:DISL:DISL:1,2015-12-03T01:30:00Z,30.2513,-88.0778,2.171,9.06,1111122 
DISL,ioos:station:DISL:DISL:1,2015-12-03T02:00:00Z,30.2513,-88.0778,2.187,9.15,1111122 
DISL,ioos:station:DISL:DISL:1,2015-12-03T02:30:00Z,30.2513,-88.0778,2.174,8.97,1111122 
DISL,ioos:station:DISL:DISL:1,2015-12-03T03:00:00Z,30.2513,-88.0778,2.213,8.93,1111122 
DISL,ioos:station:DISL:DISL:1,2015-12-03T03:30:00Z,30.2513,-88.0778,2.194,8.86,1111122 
DISL,ioos:station:DISL:DISL:1,2015-12-03T04:00:00Z,30.2513,-88.0778,2.179,8.85,1111122 
DISL,ioos:station:DISL:DISL:1,2015-12-03T04:30:00Z,30.2513,-88.0778,2.199,8.93,1111122 
DISL,ioos:station:DISL:DISL:1,2015-12-03T05:00:00Z,30.2513,-88.0778,2.165,8.94,1111122 
DISL,ioos:station:DISL:DISL:1,2015-12-03T05:30:00Z,30.2513,-88.0778,2.207,8.94,1111122 
DISL,ioos:station:DISL:DISL:1,2015-12-03T06:00:00Z,30.2513,-88.0778,2.16,8.95,1111122 
DISL,ioos:station:DISL:DISL:1,2015-12-03T06:30:00Z,30.2513,-88.0778,2.158,8.86,1111122 
DISL,ioos:station:DISL:DISL:1,2015-12-03T07:00:00Z,30.2513,-88.0778,2.031,9.06,1111122 
DISL,ioos:station:DISL:DISL:1,2015-12-03T07:30:00Z,30.2513,-88.0778,2.165,8.92,1111122 
DISL,ioos:station:DISL:DISL:1,2015-12-03T08:00:00Z,30.2513,-88.0778,2.118,9.23,1111122 
DISL,ioos:station:DISL:DISL:1,2015-12-03T08:30:00Z,30.2513,-88.0778,2.166,9.26,1111122 
DISL,ioos:station:DISL:DISL:1,2015-12-03T09:00:00Z,30.2513,-88.0778,2.165,9.4,1111122 
DISL,ioos:station:DISL:DISL:1,2015-12-03T09:30:00Z,30.2513,-88.0778,2.082,9.45,1111122 
DISL,ioos:station:DISL:DISL:1,2015-12-03T10:00:00Z,30.2513,-88.0778,2.148,9.48,1111122 
DISL,ioos:station:DISL:DISL:1,2015-12-03T10:30:00Z,30.2513,-88.0778,2.223,9.51,1111122 
DISL,ioos:station:DISL:DISL:1,2015-12-03T11:00:00Z,30.2513,-88.0778,2.091,9.5,1111122 
DISL,ioos:station:DISL:DISL:1,2015-12-03T11:30:00Z,30.2513,-88.0778,2.042,9.32,1111122 
DISL,ioos:station:DISL:DISL:1,2015-12-03T12:00:00Z,30.2513,-88.0778,1.996,9.44,1111122 
DISL,ioos:station:DISL:DISL:1,2015-12-03T12:30:00Z,30.2513,-88.0778,2.019,9.42,1111122 
DISL,ioos:station:DISL:DISL:1,2015-12-03T13:00:00Z,30.2513,-88.0778,2.04,9.3,1111122 
DISL,ioos:station:DISL:DISL:1,2015-12-03T13:30:00Z,30.2513,-88.0778,2.059,9.39,1111122 
DISL,ioos:station:DISL:DISL:1,2015-12-03T14:00:00Z,30.2513,-88.0778,2.032,9.41,1111122 
DISL,ioos:station:DISL:DISL:1,2015-12-03T14:30:00Z,30.2513,-88.0778,1.97,9.34,1111122 
DISL,ioos:station:DISL:DISL:1,2015-12-03T15:00:00Z,30.2513,-88.0778,2.006,9.54,1111122 
DISL,ioos:station:DISL:DISL:1,2015-12-03T15:30:00Z,30.2513,-88.0778,1.95,9.49,1111122 
DISL,ioos:station:DISL:DISL:1,2015-12-03T16:00:00Z,30.2513,-88.0778,1.98,9.54,1111122 
DISL,ioos:station:DISL:DISL:1,2015-12-03T16:30:00Z,30.2513,-88.0778,1.961,9.65,1111122 
DISL,ioos:station:DISL:DISL:1,2015-12-03T17:00:00Z,30.2513,-88.0778,1.929,9.58,1111122 
DISL,ioos:station:DISL:DISL:1,2015-12-03T17:30:00Z,30.2513,-88.0778,1.976,9.82,1111122 
DISL,ioos:station:DISL:DISL:1,2015-12-03T18:00:00Z,30.2513,-88.0778,1.96,9.92,1111122 
DISL,ioos:station:DISL:DISL:1,2015-12-03T18:30:00Z,30.2513,-88.0778,1.953,10.17,1111122 
DISL,ioos:station:DISL:DISL:1,2015-12-03T19:00:00Z,30.2513,-88.0778,1.98,10.27,1111122 
DISL,ioos:station:DISL:DISL:1,2015-12-03T19:30:00Z,30.2513,-88.0778,1.964,10.0,1111122 
DISL,ioos:station:DISL:DISL:1,2015-12-03T20:00:00Z,30.2513,-88.0778,1.973,9.9,1111122 
DISL,ioos:station:DISL:DISL:1,2015-12-03T20:30:00Z,30.2513,-88.0778,1.993,9.42,1111122 
DISL,ioos:station:DISL:DISL:1,2015-12-03T21:00:00Z,30.2513,-88.0778,1.986,9.02,1111122 
DISL,ioos:station:DISL:DISL:1,2015-12-03T21:30:00Z,30.2513,-88.0778,1.973,9.58,1111122 
DISL,ioos:station:DISL:DISL:1,2015-12-03T22:00:00Z,30.2513,-88.0778,1.994,9.73,1111122 
DISL,ioos:station:DISL:DISL:1,2015-12-03T22:30:00Z,30.2513,-88.0778,2.002,9.89,1111122 
DISL,ioos:station:DISL:DISL:1,2015-12-03T23:00:00Z,30.2513,-88.0778,1.993,9.76,1111122 
DISL,ioos:station:DISL:DISL:1,2015-12-03T23:30:00Z,30.2513,-88.0778,2.018,9.33,1111122 
DISL,ioos:station:DISL:DISL:1,2015-12-04T00:00:00Z,30.2513,-88.0778,2.026,9.73,1111122 
DISL,ioos:station:DISL:DISL:1,2015-12-04T00:30:00Z,30.2513,-88.0778,2.044,9.86,1111122 
DISL,ioos:station:DISL:DISL:1,2015-12-04T01:00:00Z,30.2513,-88.0778,1.991,10.16,1111122 
DISL,ioos:station:DISL:DISL:1,2015-12-04T01:30:00Z,30.2513,-88.0778,2.038,10.22,1111122 
DISL,ioos:station:DISL:DISL:1,2015-12-04T02:00:00Z,30.2513,-88.0778,2.021,10.31,1111122 
DISL,ioos:station:DISL:DISL:1,2015-12-04T02:30:00Z,30.2513,-88.0778,2.137,10.14,1111122 
DISL,ioos:station:DISL:DISL:1,2015-12-04T03:00:00Z,30.2513,-88.0778,1.968,9.83,1111122 
DISL,ioos:station:DISL:DISL:1,2015-12-04T03:30:00Z,30.2513,-88.0778,2.123,10.1,1111122 
DISL,ioos:station:DISL:DISL:1,2015-12-04T04:00:00Z,30.2513,-88.0778,1.988,9.39,1111122 
DISL,ioos:station:DISL:DISL:1,2015-12-04T04:30:00Z,30.2513,-88.0778,1.987,9.98,1111122 
DISL,ioos:station:DISL:DISL:1,2015-12-04T05:00:00Z,30.2513,-88.0778,1.905,9.37,1111122 
DISL,ioos:station:DISL:DISL:1,2015-12-04T05:30:00Z,30.2513,-88.0778,2.046,9.36,1111122 
DISL,ioos:station:DISL:DISL:1,2015-12-04T06:00:00Z,30.2513,-88.0778,1.952,9.42,1111122 
DISL,ioos:station:DISL:DISL:1,2015-12-04T06:30:00Z,30.2513,-88.0778,2.006,9.76,1111122 
DISL,ioos:station:DISL:DISL:1,2015-12-04T07:00:00Z,30.2513,-88.0778,2.05,9.52,1111122 
DISL,ioos:station:DISL:DISL:1,2015-12-04T07:30:00Z,30.2513,-88.0778,2.081,9.78,1111122 
DISL,ioos:station:DISL:DISL:1,2015-12-04T08:00:00Z,30.2513,-88.0778,2.007,9.47,1111122 
DISL,ioos:station:DISL:DISL:1,2015-12-04T08:30:00Z,30.2513,-88.0778,1.982,9.36,1111122 
DISL,ioos:station:DISL:DISL:1,2015-12-04T09:00:00Z,30.2513,-88.0778,1.964,9.8,1111122 
DISL,ioos:station:DISL:DISL:1,2015-12-04T09:30:00Z,30.2513,-88.0778,1.939,9.33,1111122 
DISL,ioos:station:DISL:DISL:1,2015-12-04T10:00:00Z,30.2513,-88.0778,1.99,9.28,1111122 
DISL,ioos:station:DISL:DISL:1,2015-12-04T10:30:00Z,30.2513,-88.0778,1.968,9.79,1111122 
DISL,ioos:station:DISL:DISL:1,2015-12-04T11:00:00Z,30.2513,-88.0778,1.9,9.89,1111122 
DISL,ioos:station:DISL:DISL:1,2015-12-04T11:30:00Z,30.2513,-88.0778,1.949,10.03,1111122 
DISL,ioos:station:DISL:DISL:1,2015-12-04T12:00:00Z,30.2513,-88.0778,1.952,9.48,1111122 
DISL,ioos:station:DISL:DISL:1,2015-12-04T12:30:00Z,30.2513,-88.0778,1.955,9.38,1111122 
DISL,ioos:station:DISL:DISL:1,2015-12-04T13:00:00Z,30.2513,-88.0778,1.962,9.4,1111122 
DISL,ioos:station:DISL:DISL:1,2015-12-04T13:30:00Z,30.2513,-88.0778,1.942,9.35,1111122 
DISL,ioos:station:DISL:DISL:1,2015-12-04T14:00:00Z,30.2513,-88.0778,1.914,9.39,1111122 
DISL,ioos:station:DISL:DISL:1,2015-12-04T14:30:00Z,30.2513,-88.0778,1.935,9.39,1111122 
DISL,ioos:station:DISL:DISL:1,2015-12-04T15:00:00Z,30.2513,-88.0778,1.909,9.4,1111122 
DISL,ioos:station:DISL:DISL:1,2015-12-04T15:30:00Z,30.2513,-88.0778,1.907,9.54,1111122 
DISL,ioos:station:DISL:DISL:1,2015-12-04T16:00:00Z,30.2513,-88.0778,1.902,9.56,1111122 
DISL,ioos:station:DISL:DISL:1,2015-12-04T16:30:00Z,30.2513,-88.0778,1.88,9.55,1111122 
DISL,ioos:station:DISL:DISL:1,2015-12-04T17:00:00Z,30.2513,-88.0778,1.881,9.57,1111122 
DISL,ioos:station:DISL:DISL:1,2015-12-04T17:30:00Z,30.2513,-88.0778,1.9,9.62,1111122 
DISL,ioos:station:DISL:DISL:1,2015-12-04T18:00:00Z,30.2513,-88.0778,1.903,9.03,1111122 
DISL,ioos:station:DISL:DISL:1,2015-12-04T18:30:00Z,30.2513,-88.0778,1.919,8.91,1111122 
DISL,ioos:station:DISL:DISL:1,2015-12-04T19:00:00Z,30.2513,-88.0778,1.932,8.94,1111122 
DISL,ioos:station:DISL:DISL:1,2015-12-04T19:30:00Z,30.2513,-88.0778,1.947,8.89,1111122 
DISL,ioos:station:DISL:DISL:1,2015-12-04T20:00:00Z,30.2513,-88.0778,1.951,9.31,1111122 
DISL,ioos:station:DISL:DISL:1,2015-12-04T20:30:00Z,30.2513,-88.0778,1.961,9.42,1111122 
DISL,ioos:station:DISL:DISL:1,2015-12-04T21:00:00Z,30.2513,-88.0778,1.988,9.49,1111122 
DISL,ioos:station:DISL:DISL:1,2015-12-04T21:30:00Z,30.2513,-88.0778,2.0,9.69,1111122 
DISL,ioos:station:DISL:DISL:1,2015-12-04T22:00:00Z,30.2513,-88.0778,2.011,9.9,1111122 
DISL,ioos:station:DISL:DISL:1,2015-12-04T22:30:00Z,30.2513,-88.0778,2.009,9.93,1111122 
DISL,ioos:station:DISL:DISL:1,2015-12-04T23:00:00Z,30.2513,-88.0778,2.02,9.97,1111122 
DISL,ioos:station:DISL:DISL:1,2015-12-04T23:30:00Z,30.2513,-88.0778,2.002,10.15,1111122 
DISL,ioos:station:DISL:DISL:1,2015-12-05T00:00:00Z,30.2513,-88.0778,2.02,10.29,1111122 
DISL,ioos:station:DISL:DISL:1,2015-12-05T00:30:00Z,30.2513,-88.0778,2.019,10.43,1111122 
DISL,ioos:station:DISL:DISL:1,2015-12-05T01:00:00Z,30.2513,-88.0778,1.95,10.56,1111122 
DISL,ioos:station:DISL:DISL:1,2015-12-05T01:30:00Z,30.2513,-88.0778,2.035,10.52,1111122 
DISL,ioos:station:DISL:DISL:1,2015-12-05T02:00:00Z,30.2513,-88.0778,2.034,10.16,1111122 
DISL,ioos:station:DISL:DISL:1,2015-12-05T02:30:00Z,30.2513,-88.0778,1.992,9.94,1111122 
DISL,ioos:station:DISL:DISL:1,2015-12-05T03:00:00Z,30.2513,-88.0778,2.002,9.92,1111122 
DISL,ioos:station:DISL:DISL:1,2015-12-05T03:30:00Z,30.2513,-88.0778,2.11,9.85,1111122 
DISL,ioos:station:DISL:DISL:1,2015-12-05T04:00:00Z,30.2513,-88.0778,1.99,9.78,1111122 
DISL,ioos:station:DISL:DISL:1,2015-12-05T04:30:00Z,30.2513,-88.0778,2.012,9.75,1111122 
DISL,ioos:station:DISL:DISL:1,2015-12-05T05:00:00Z,30.2513,-88.0778,2.005,9.67,1111122 
DISL,ioos:station:DISL:DISL:1,2015-12-05T05:30:00Z,30.2513,-88.0778,1.993,9.63,1111122 
DISL,ioos:station:DISL:DISL:1,2015-12-05T06:00:00Z,30.2513,-88.0778,2.005,9.61,1111122 
DISL,ioos:station:DISL:DISL:1,2015-12-05T06:30:00Z,30.2513,-88.0778,2.039,9.61,1111122 
DISL,ioos:station:DISL:DISL:1,2015-12-05T07:00:00Z,30.2513,-88.0778,2.087,9.59,1111122 
DISL,ioos:station:DISL:DISL:1,2015-12-05T07:30:00Z,30.2513,-88.0778,2.087,9.61,1111122 
DISL,ioos:station:DISL:DISL:1,2015-12-05T08:00:00Z,30.2513,-88.0778,1.994,9.62,1111122 
DISL,ioos:station:DISL:DISL:1,2015-12-05T08:30:00Z,30.2513,-88.0778,2.054,9.57,1111122 
DISL,ioos:station:DISL:DISL:1,2015-12-05T09:00:00Z,30.2513,-88.0778,1.963,9.55,1111122 
DISL,ioos:station:DISL:DISL:1,2015-12-05T09:30:00Z,30.2513,-88.0778,1.892,9.53,1111122 
DISL,ioos:station:DISL:DISL:1,2015-12-05T10:00:00Z,30.2513,-88.0778,1.945,9.56,1111122 
DISL,ioos:station:DISL:DISL:1,2015-12-05T10:30:00Z,30.2513,-88.0778,1.957,9.58,1111122 
DISL,ioos:station:DISL:DISL:1,2015-12-05T11:00:00Z,30.2513,-88.0778,1.942,9.49,1111122 
DISL,ioos:station:DISL:DISL:1,2015-12-05T11:30:00Z,30.2513,-88.0778,1.954,9.49,1111122 
DISL,ioos:station:DISL:DISL:1,2015-12-05T12:00:00Z,30.2513,-88.0778,1.946,9.49,1111122 
DISL,ioos:station:DISL:DISL:1,2015-12-05T12:30:00Z,30.2513,-88.0778,1.898,9.52,1111122 
DISL,ioos:station:DISL:DISL:1,2015-12-05T13:00:00Z,30.2513,-88.0778,1.928,9.43,1111122 
DISL,ioos:station:DISL:DISL:1,2015-12-05T13:30:00Z,30.2513,-88.0778,1.91,9.43,1111122 
DISL,ioos:station:DISL:DISL:1,2015-12-05T14:00:00Z,30.2513,-88.0778,1.912,9.52,1111122 
DISL,ioos:station:DISL:DISL:1,2015-12-05T14:30:00Z,30.2513,-88.0778,1.902,9.59,1111122 
DISL,ioos:station:DISL:DISL:1,2015-12-05T15:00:00Z,30.2513,-88.0778,1.876,9.65,1111122 
DISL,ioos:station:DISL:DISL:1,2015-12-05T15:30:00Z,30.2513,-88.0778,1.888,9.71,1111122 
DISL,ioos:station:DISL:DISL:1,2015-12-05T16:00:00Z,30.2513,-88.0778,1.882,9.8,1111122 
DISL,ioos:station:DISL:DISL:1,2015-12-05T16:30:00Z,30.2513,-88.0778,1.866,9.89,1111122 
DISL,ioos:station:DISL:DISL:1,2015-12-05T17:00:00Z,30.2513,-88.0778,1.864,9.95,1111122 
DISL,ioos:station:DISL:DISL:1,2015-12-05T17:30:00Z,30.2513,-88.0778,1.87,10.1,1111122 
DISL,ioos:station:DISL:DISL:1,2015-12-05T18:00:00Z,30.2513,-88.0778,1.888,10.18,1111122 
DISL,ioos:station:DISL:DISL:1,2015-12-05T18:30:00Z,30.2513,-88.0778,1.893,10.09,1111122 
DISL,ioos:station:DISL:DISL:1,2015-12-05T19:00:00Z,30.2513,-88.0778,1.914,10.27,1111122 
DISL,ioos:station:DISL:DISL:1,2015-12-05T19:30:00Z,30.2513,-88.0778,1.912,10.01,1111122 
DISL,ioos:station:DISL:DISL:1,2015-12-05T20:00:00Z,30.2513,-88.0778,1.921,9.9,1111122 
DISL,ioos:station:DISL:DISL:1,2015-12-05T20:30:00Z,30.2513,-88.0778,1.926,9.82,1111122 
DISL,ioos:station:DISL:DISL:1,2015-12-05T21:00:00Z,30.2513,-88.0778,1.958,9.65,1111122 
DISL,ioos:station:DISL:DISL:1,2015-12-05T21:30:00Z,30.2513,-88.0778,1.964,10.34,1111122 
DISL,ioos:station:DISL:DISL:1,2015-12-05T22:00:00Z,30.2513,-88.0778,1.979,10.22,1111122 
DISL,ioos:station:DISL:DISL:1,2015-12-05T22:30:00Z,30.2513,-88.0778,1.988,9.5,1111122 
DISL,ioos:station:DISL:DISL:1,2015-12-05T23:00:00Z,30.2513,-88.0778,2.021,10.05,1111122 
DISL,ioos:station:DISL:DISL:1,2015-12-05T23:30:00Z,30.2513,-88.0778,2.028,9.88,1111122 
DISL,ioos:station:DISL:DISL:1,2015-12-06T00:00:00Z,30.2513,-88.0778,2.029,7.82,1111122 
DISL,ioos:station:DISL:DISL:1,2015-12-06T00:30:00Z,30.2513,-88.0778,2.063,9.52,1111122 
DISL,ioos:station:DISL:DISL:1,2015-12-06T01:00:00Z,30.2513,-88.0778,2.054,8.36,1111122 
DISL,ioos:station:DISL:DISL:1,2015-12-06T01:30:00Z,30.2513,-88.0778,2.069,7.61,1111122 
DISL,ioos:station:DISL:DISL:1,2015-12-06T02:00:00Z,30.2513,-88.0778,2.081,9.08,1111122 
DISL,ioos:station:DISL:DISL:1,2015-12-06T02:30:00Z,30.2513,-88.0778,2.089,10.89,1111122 
DISL,ioos:station:DISL:DISL:1,2015-12-06T03:00:00Z,30.2513,-88.0778,2.087,10.9,1111122 
DISL,ioos:station:DISL:DISL:1,2015-12-06T03:30:00Z,30.2513,-88.0778,2.092,11.03,1111122 
DISL,ioos:station:DISL:DISL:1,2015-12-06T04:00:00Z,30.2513,-88.0778,2.074,10.78,1111122 
DISL,ioos:station:DISL:DISL:1,2015-12-06T04:30:00Z,30.2513,-88.0778,2.051,10.86,1111122 
DISL,ioos:station:DISL:DISL:1,2015-12-06T05:00:00Z,30.2513,-88.0778,2.04,10.75,1111122 
DISL,ioos:station:DISL:DISL:1,2015-12-06T05:30:00Z,30.2513,-88.0778,1.978,10.73,1111122 
DISL,ioos:station:DISL:DISL:1,2015-12-06T06:00:00Z,30.2513,-88.0778,2.092,10.44,1111122 
DISL,ioos:station:DISL:DISL:1,2015-12-06T06:30:00Z,30.2513,-88.0778,2.025,10.32,1111122 
DISL,ioos:station:DISL:DISL:1,2015-12-06T07:00:00Z,30.2513,-88.0778,2.004,10.16,1111122 
DISL,ioos:station:DISL:DISL:1,2015-12-06T07:30:00Z,30.2513,-88.0778,1.999,10.18,1111122 
DISL,ioos:station:DISL:DISL:1,2015-12-06T08:00:00Z,30.2513,-88.0778,1.989,10.18,1111122 
DISL,ioos:station:DISL:DISL:1,2015-12-06T08:30:00Z,30.2513,-88.0778,1.965,10.13,1111122 
DISL,ioos:station:DISL:DISL:1,2015-12-06T09:00:00Z,30.2513,-88.0778,1.96,10.06,1111122 
DISL,ioos:station:DISL:DISL:1,2015-12-06T09:30:00Z,30.2513,-88.0778,1.954,10.01,1111122 
DISL,ioos:station:DISL:DISL:1,2015-12-06T10:00:00Z,30.2513,-88.0778,1.958,9.96,1111122 
DISL,ioos:station:DISL:DISL:1,2015-12-06T10:30:00Z,30.2513,-88.0778,1.946,9.9,1111122 
DISL,ioos:station:DISL:DISL:1,2015-12-06T11:00:00Z,30.2513,-88.0778,1.951,9.86,1111122 
DISL,ioos:station:DISL:DISL:1,2015-12-06T11:30:00Z,30.2513,-88.0778,1.92,9.82,1111122 
DISL,ioos:station:DISL:DISL:1,2015-12-06T12:00:00Z,30.2513,-88.0778,1.928,9.78,1111122 
DISL,ioos:station:DISL:DISL:1,2015-12-06T12:30:00Z,30.2513,-88.0778,1.91,9.78,1111122 
DISL,ioos:station:DISL:DISL:1,2015-12-06T13:00:00Z,30.2513,-88.0778,1.989,9.82,1111122 
DISL,ioos:station:DISL:DISL:1,2015-12-06T13:30:00Z,30.2513,-88.0778,1.912,9.84,1111122 
DISL,ioos:station:DISL:DISL:1,2015-12-06T14:00:00Z,30.2513,-88.0778,1.941,9.88,1111122 
DISL,ioos:station:DISL:DISL:1,2015-12-06T14:30:00Z,30.2513,-88.0778,1.896,9.89,1111122 
DISL,ioos:station:DISL:DISL:1,2015-12-06T15:00:00Z,30.2513,-88.0778,1.922,9.99,1111122 